Showing default

SHIJIAN 6 03A (SJ-6 03A), 33408

Orbit data source: Space-Track

SHIJIAN 6 03A (SJ-6 03A), 33408 is a payload satellite owned by CASC (CN) in SSO that was launched on Sat, 25 Oct 2008 UTC via a CHANG ZHENG 4B launch vehicle from the Taiyaun Space Center, China (TSC). Payload-class satellites include a variety of spacecraft equipped with specific instruments for various scientific and technological missions. These include communications satellites like Starlink; space stations such as the ISS; scientific satellites like the Hubble; Earth observation satellites from companies like Planet Labs, Umbra, and HawkEye 360; GPS; miniature CubeSats for education and research; and military/defense satellites.

Loading next visibility...
Identifier
33408, 2008-053A
Orbit
SSO
Country
Flag of CNCN / PRC
Related business
Manufacturer
SAST
Mission
Operational Civil Science
Bus & Motor
FY-1?, Unknown motor
Mass
~1,000 kg wet, ~1,000 kg dry
Launch date (UTC)
2008-10-25 (18 years ago)
Launch vehicle
CHANG ZHENG 4B
Launch site
Taiyaun Space Center, China (TSC)
Object type
Payload
Rocket body
Debris
Shape & HBR
Box + 2 Pan, 4.3 m
Radar Cross Section
5.659 m², Large (>1 m²)

Expand to show TLE details & history
Last TLE update: 22 hours ago

TLE from 22 hours ago
0 SHIJIAN 6 03A (SJ-6 03A)
1 33408U 08053A   26172.59957977  .00003727  00000-0  19097-3 0  9998
2 33408  97.8410 206.0738 0011082   5.9489 354.1873 15.17200507963638
Epoch: 2026-06-21T14:23Z
TLE epoch observation values (Epoch: 2026-06-21T14:23:23.692Z)
Latitude
0.00001°
Longitude
80.42755°
Altitude
509.779 km
Speed
7.613 km/s
True Right ascension
13h 44m 17s
True Declination
0° 00' 00"
Sunlit
Object was in full shadow at epoch
Visualization orbit readout
Latitude
Unknown
Longitude
Unknown
Altitude
Unknown
Speed
Unknown
Apparent Right ascension
Unknown
Apparent Declination
Unknown
Sunlit
N/A
Visualization observer readout
Local Sidereal Time
23:08:38
Azimuth
Unknown
Elevation
Unknown
Doppler factor
Unknown
Orbital elements
Apogee altitude
518.93 km
Perigee altitude
503.66 km
Semi-major axis
6,889.432 km
Eccentricity
0.00111
Inclination
97.841°
RAAN
206.0738°
Arg. of periapsis
5.9489°
True anomaly
354.17442°
Mean anomaly
354.1873°
Eccentric anomaly
354.18086°
Mean motion
3.79549 °/min
Orbital period
94.85 mins
BSTAR
0.00019097
Loading maneuver chart data...
Computing Atmospheric mass density...
Loading historical data...
Loading historical data...
Loading historical data...
Loading historical data...
Loading historical data...
Loading historical data...
Loading historical data...

Documentation

Showing up to 5 results
|